,,Stat5,,Stat1,,Stat2,,Stat3,,Stat4,,Wind1,,Wind1,
time,status,PA1M_AVG,status,PR1M_SUM,status,RH1M_AVG,status,SR1M_AVG,status,TA1M_AVG,status,W1dAve1m,status,W1sAve1m,
2002-04-11, 00:00:01,VALID,916.573,VALID,0,VALID,94.0212,VALID,-0.0169808,VALID,20.9881,VALID,146,VALID,0.720753,
2002-04-11, 00:01:00,VALID,916.589,VALID,0,VALID,93.8686,VALID,0.0169808,VALID,20.9978,VALID,118,VALID,1.19444,
2002-04-11, 00:02:00,VALID,916.587,VALID,0,VALID,93.5113,VALID,0,VALID,21.0271,VALID,123,VALID,1.60417,
2002-04-11, 00:03:00,VALID,916.597,VALID,0,VALID,93.3053,VALID,0,VALID,21.0592,VALID,128,VALID,1.02214,
2002-04-11, 00:04:00,VALID,916.597,VALID,0,VALID,93.1883,VALID,0,VALID,21.0818,VALID,127,VALID,1.10038,
2002-04-11, 00:05:00,VALID,916.601,VALID,0,VALID,93.0382,VALID,0,VALID,21.0974,VALID,146,VALID,0.823568,
2002-04-11, 00:06:00,VALID,916.611,VALID,0,VALID,92.9301,VALID,0,VALID,21.1206,VALID,108,VALID,0.75641,
2002-04-11, 00:07:00,VALID,916.602,VALID,0,VALID,92.8907,VALID,0,VALID,21.127,VALID,121,VALID,0.732077,
2002-04-11, 00:08:00,VALID,916.605,VALID,0,VALID,92.9352,VALID,0,VALID,21.1332,VALID,35,VALID,0.219351,
2002-04-11, 00:09:00,VALID,916.591,VALID,0,VALID,92.9746,VALID,0,VALID,21.1106,VALID,26,VALID,0.513719,
2002-04-11, 00:10:00,VALID,916.59,VALID,0,VALID,93.1247,VALID,-0.0169808,VALID,21.0813,VALID,54,VALID,0.40625,
2002-04-11, 00:11:00,VALID,916.577,VALID,0,VALID,93.2735,VALID,0,VALID,21.0654,VALID,29,VALID,0.312089,
2002-04-11, 00:12:00,VALID,916.561,VALID,0,VALID,93.5278,VALID,0,VALID,21.0166,VALID,33,VALID,0.398655,
2002-04-11, 00:13:00,VALID,916.561,VALID,0,VALID,93.6054,VALID,0,VALID,21.004,VALID,42,VALID,0.320524,
2002-04-11, 00:14:00,VALID,916.564,VALID,0,VALID,93.7134,VALID,-0.0339617,VALID,20.9786,VALID,57,VALID,0.217949,
2002-04-11, 00:15:00,VALID,916.555,VALID,0,VALID,93.8215,VALID,-0.0169808,VALID,20.9364,VALID,57,VALID,0,
2002-04-11, 00:16:00,VALID,916.543,VALID,0,VALID,93.9983,VALID,0,VALID,20.9006,VALID,111,VALID,0.304688,
2002-04-11, 00:17:00,VALID,916.535,VALID,0,VALID,94.231,VALID,0,VALID,20.8782,VALID,160,VALID,0.122997,
2002-04-11, 00:18:00,VALID,916.522,VALID,0,VALID,94.3429,VALID,-0.0169808,VALID,20.8618,VALID,160,VALID,0.0082348,
2002-04-11, 00:19:00,VALID,916.514,VALID,0,VALID,94.4878,VALID,-0.0169808,VALID,20.8462,VALID,145,VALID,0.434827,
2002-04-11, 00:20:00,VALID,916.503,VALID,0,VALID,94.6443,VALID,0,VALID,20.8101,VALID,125,VALID,0.972656,
2002-04-11, 00:21:00,VALID,916.489,VALID,0,VALID,94.8579,VALID,0,VALID,20.8069,VALID,143,VALID,0.896115,
2002-04-11, 00:22:00,VALID,916.472,VALID,0,VALID,94.952,VALID,0,VALID,20.8007,VALID,132,VALID,0.984776,
2002-04-11, 00:23:00,VALID,916.46,VALID,0,VALID,95.0995,VALID,0,VALID,20.7748,VALID,157,VALID,0.591427,
2002-04-11, 00:24:00,VALID,916.445,VALID,0,VALID,95.2495,VALID,0.0169808,VALID,20.7689,VALID,145,VALID,0.733398,
2002-04-11, 00:25:00,VALID,916.414,VALID,0,VALID,95.3894,VALID,0,VALID,20.7554,VALID,148,VALID,0.525641,
2002-04-11, 00:26:00,VALID,916.433,VALID,0,VALID,95.4721,VALID,0,VALID,20.7261,VALID,134,VALID,0.325169,
2002-04-11, 00:27:00,VALID,916.42,VALID,0,VALID,95.5802,VALID,0,VALID,20.697,VALID,135,VALID,0.173109,
2002-04-11, 00:28:00,VALID,916.415,VALID,0,VALID,95.7429,VALID,-0.0339617,VALID,20.6684,VALID,120,VALID,0.658306,
2002-04-11, 00:29:00,VALID,916.401,VALID,0,VALID,95.9248,VALID,-0.0339617,VALID,20.6429,VALID,128,VALID,0.520904,
2002-04-11, 00:30:00,VALID,916.382,VALID,0,VALID,96.1244,VALID,0,VALID,20.613,VALID,112,VALID,0.747396,
2002-04-11, 00:31:00,VALID,916.384,VALID,0,VALID,96.2859,VALID,0,VALID,20.5874,VALID,133,VALID,1.55511,
2002-04-11, 00:32:00,VALID,916.356,VALID,0,VALID,96.4499,VALID,0.0169808,VALID,20.568,VALID,129,VALID,2.01719,
2002-04-11, 00:33:00,VALID,916.327,VALID,0,VALID,96.4639,VALID,0,VALID,20.5979,VALID,109,VALID,1.86358,
2002-04-11, 00:34:00,VALID,916.317,VALID,0,VALID,96.3546,VALID,0,VALID,20.6108,VALID,109,VALID,1.04561,
2002-04-11, 00:35:00,VALID,916.293,VALID,0,VALID,96.2617,VALID,0,VALID,20.6108,VALID,96,VALID,0.833059,
2002-04-11, 00:36:00,VALID,916.283,VALID,0,VALID,96.4309,VALID,0,VALID,20.5804,VALID,111,VALID,1.22677,
2002-04-11, 00:37:00,VALID,916.266,VALID,0,VALID,96.5936,VALID,-0.101885,VALID,20.5822,VALID,125,VALID,1.51161,
2002-04-11, 00:38:00,VALID,916.24,VALID,0,VALID,96.7055,VALID,-0.118866,VALID,20.5725,VALID,124,VALID,1.52384,
2002-04-11, 00:39:00,VALID,916.228,VALID,0,VALID,96.8034,VALID,-0.101885,VALID,20.5572,VALID,131,VALID,1.22889,
2002-04-11, 00:40:00,VALID,916.215,VALID,0,VALID,96.867,VALID,-0.101885,VALID,20.5405,VALID,139,VALID,0.868164,
2002-04-11, 00:41:00,VALID,916.188,VALID,0,VALID,96.9192,VALID,-0.101885,VALID,20.5117,VALID,125,VALID,0.776442,
2002-04-11, 00:42:00,VALID,916.176,VALID,0,VALID,96.9675,VALID,-0.0849042,VALID,20.4853,VALID,134,VALID,1.27492,
2002-04-11, 00:43:00,VALID,916.157,VALID,0,VALID,96.9751,VALID,-0.0679233,VALID,20.5015,VALID,137,VALID,1.1102,
2002-04-11, 00:44:00,VALID,915.725,VALID,0,VALID,96.9509,VALID,-0.101885,VALID,20.5017,VALID,133,VALID,1.14618,
2002-04-11, 00:45:00,VALID,916.149,VALID,0,VALID,96.9255,VALID,-0.101885,VALID,20.5087,VALID,140,VALID,1.06799,
2002-04-11, 00:46:00,VALID,916.14,VALID,0,VALID,96.82,VALID,-0.0849042,VALID,20.5079,VALID,137,VALID,1.42268,
2002-04-11, 00:47:00,VALID,916.151,VALID,0,VALID,96.7551,VALID,-0.118866,VALID,20.5179,VALID,113,VALID,0.887247,
2002-04-11, 00:48:00,VALID,916.167,VALID,0,VALID,96.5936,VALID,-0.101885,VALID,20.5405,VALID,109,VALID,1.60059,
2002-04-11, 00:49:00,VALID,916.162,VALID,0,VALID,96.2961,VALID,-0.101885,VALID,20.5763,VALID,132,VALID,1.12079,
2002-04-11, 00:50:00,VALID,916.184,VALID,0,VALID,96.099,VALID,-0.101885,VALID,20.6054,VALID,140,VALID,0.993877,
2002-04-11, 00:51:00,VALID,916.166,VALID,0,VALID,96.0697,VALID,-0.101885,VALID,20.6118,VALID,149,VALID,1.38363,
2002-04-11, 00:52:00,VALID,916.165,VALID,0,VALID,96.0977,VALID,0,VALID,20.6038,VALID,148,VALID,1.184,
2002-04-11, 00:53:00,VALID,916.146,VALID,0,VALID,96.1676,VALID,0,VALID,20.5939,VALID,153,VALID,1.31229,
2002-04-11, 00:54:00,VALID,916.131,VALID,0,VALID,96.2795,VALID,0,VALID,20.571,VALID,161,VALID,1.91767,
2002-04-11, 00:55:00,VALID,916.104,VALID,0,VALID,96.3775,VALID,0,VALID,20.5548,VALID,157,VALID,1.77407,
2002-04-11, 00:56:00,VALID,916.095,VALID,0,VALID,96.4817,VALID,0,VALID,20.5354,VALID,143,VALID,1.63633,
2002-04-11, 00:57:00,VALID,916.071,VALID,0,VALID,96.5669,VALID,0,VALID,20.5196,VALID,168,VALID,1.29067,
2002-04-11, 00:58:00,VALID,916.038,VALID,0,VALID,96.6013,VALID,0,VALID,20.4773,VALID,158,VALID,1.59396,
2002-04-11, 00:59:00,VALID,916.002,VALID,0,VALID,96.6928,VALID,0.0169808,VALID,20.4711,VALID,144,VALID,1.4521,
2002-04-11, 01:00:00,VALID,915.989,VALID,0,VALID,96.7017,VALID,0.0169808,VALID,20.4487,VALID,140,VALID,1.55037,
2002-04-11, 01:01:00,VALID,915.978,VALID,0,VALID,96.6623,VALID,-0.0339617,VALID,20.4552,VALID,131,VALID,1.10198,
2002-04-11, 01:02:00,VALID,915.979,VALID,0,VALID,96.5657,VALID,-0.0169808,VALID,20.4293,VALID,118,VALID,1.3109,
2002-04-11, 01:03:00,VALID,915.969,VALID,0,VALID,96.4881,VALID,-0.0169808,VALID,20.4062,VALID,141,VALID,0.765203,
2002-04-11, 01:04:00,VALID,915.965,VALID,0,VALID,96.3927,VALID,0,VALID,20.4296,VALID,130,VALID,1.10762,
2002-04-11, 01:05:00,VALID,915.981,VALID,0,VALID,96.3113,VALID,0,VALID,20.4293,VALID,129,VALID,1.21675,
2002-04-11, 01:06:00,VALID,915.984,VALID,0,VALID,96.1524,VALID,0,VALID,20.4452,VALID,97,VALID,1.33678,
2002-04-11, 01:07:00,VALID,915.979,VALID,0,VALID,96.0697,VALID,-0.0849042,VALID,20.4498,VALID,126,VALID,1.7685,
2002-04-11, 01:08:00,VALID,915.968,VALID,0,VALID,96.0112,VALID,-0.101885,VALID,20.4468,VALID,142,VALID,0.834087,
2002-04-11, 01:09:00,VALID,915.971,VALID,0,VALID,96.0189,VALID,-0.101885,VALID,20.4438,VALID,126,VALID,1.14654,
2002-04-11, 01:10:00,VALID,915.959,VALID,0,VALID,96.0456,VALID,-0.101885,VALID,20.4306,VALID,144,VALID,0.695913,
2002-04-11, 01:11:00,VALID,915.939,VALID,0,VALID,96.1231,VALID,-0.118866,VALID,20.4115,VALID,136,VALID,1.24472,
2002-04-11, 01:12:00,VALID,915.922,VALID,0,VALID,96.1804,VALID,-0.101885,VALID,20.4118,VALID,139,VALID,1.10176,
2002-04-11, 01:13:00,VALID,915.902,VALID,0,VALID,96.2261,VALID,-0.101885,VALID,20.3757,VALID,143,VALID,1.19351,
2002-04-11, 01:14:00,VALID,915.885,VALID,0,VALID,96.3609,VALID,-0.0849042,VALID,20.3558,VALID,147,VALID,1.86529,
2002-04-11, 01:15:00,VALID,915.862,VALID,0,VALID,96.3393,VALID,-0.101885,VALID,20.3561,VALID,116,VALID,1.3678,
2002-04-11, 01:16:00,VALID,915.852,VALID,0,VALID,96.3533,VALID,-0.101885,VALID,20.327,VALID,124,VALID,1.38076,
2002-04-11, 01:17:00,VALID,915.833,VALID,0,VALID,96.5771,VALID,-0.118866,VALID,20.3245,VALID,152,VALID,2.07411,
2002-04-11, 01:18:00,VALID,915.804,VALID,0,VALID,96.6585,VALID,-0.118866,VALID,20.3175,VALID,145,VALID,1.67468,
2002-04-11, 01:19:00,VALID,915.775,VALID,0,VALID,96.6826,VALID,-0.101885,VALID,20.3277,VALID,150,VALID,1.49662,
2002-04-11, 01:20:00,VALID,915.743,VALID,0,VALID,96.614,VALID,-0.101885,VALID,20.3213,VALID,134,VALID,1.30625,
2002-04-11, 01:21:00,VALID,915.738,VALID,0,VALID,96.5339,VALID,-0.101885,VALID,20.2982,VALID,98,VALID,1.05769,
2002-04-11, 01:22:00,VALID,915.719,VALID,0,VALID,96.5237,VALID,-0.0339617,VALID,20.281,VALID,115,VALID,1.05617,
2002-04-11, 01:23:00,VALID,915.707,VALID,0,VALID,96.5072,VALID,-0.0339617,VALID,20.2616,VALID,123,VALID,0.929482,
2002-04-11, 01:24:00,VALID,915.703,VALID,0,VALID,96.6521,VALID,0,VALID,20.2653,VALID,116,VALID,1.41427,
2002-04-11, 01:25:00,VALID,915.694,VALID,0,VALID,96.7284,VALID,0,VALID,20.2681,VALID,126,VALID,1.40836,
2002-04-11, 01:26:00,VALID,915.677,VALID,0,VALID,96.7195,VALID,0,VALID,20.2775,VALID,125,VALID,1.28706,
2002-04-11, 01:27:00,VALID,915.674,VALID,0,VALID,96.6267,VALID,-0.0169808,VALID,20.278,VALID,110,VALID,0.940667,
2002-04-11, 01:28:00,VALID,915.669,VALID,0,VALID,96.6521,VALID,0.0169808,VALID,20.2646,VALID,92,VALID,0.645703,
2002-04-11, 01:29:00,VALID,915.645,VALID,0,VALID,96.6776,VALID,0,VALID,20.2646,VALID,140,VALID,0.958133,
2002-04-11, 01:30:00,VALID,915.624,VALID,0,VALID,96.6954,VALID,0,VALID,20.242,VALID,147,VALID,1.0984,
2002-04-11, 01:31:00,VALID,915.605,VALID,0,VALID,96.7373,VALID,0,VALID,20.2522,VALID,131,VALID,0.981291,
2002-04-11, 01:32:00,VALID,915.569,VALID,0,VALID,96.7577,VALID,0,VALID,20.2352,VALID,117,VALID,1.33717,
2002-04-11, 01:33:00,VALID,915.527,VALID,0,VALID,96.7475,VALID,-0.0169808,VALID,20.2489,VALID,132,VALID,1.41744,
2002-04-11, 01:34:00,VALID,915.501,VALID,0,VALID,96.7399,VALID,0,VALID,20.2454,VALID,147,VALID,1.42748,
2002-04-11, 01:35:00,VALID,915.477,VALID,0,VALID,96.675,VALID,0,VALID,20.2452,VALID,138,VALID,1.072,
2002-04-11, 01:36:00,VALID,915.448,VALID,0,VALID,96.6852,VALID,0.0169808,VALID,20.2516,VALID,149,VALID,1.53555,
2002-04-11, 01:37:00,VALID,915.427,VALID,0,VALID,96.7271,VALID,-0.0169808,VALID,20.272,VALID,154,VALID,1.65725,
2002-04-11, 01:38:00,VALID,915.406,VALID,0,VALID,96.7221,VALID,-0.0169808,VALID,20.275,VALID,151,VALID,2.22783,
2002-04-11, 01:39:00,VALID,915.398,VALID,0,VALID,96.6534,VALID,-0.0679233,VALID,20.2877,VALID,148,VALID,1.62315,
2002-04-11, 01:40:00,VALID,915.391,VALID,0,VALID,96.5784,VALID,-0.0169808,VALID,20.3041,VALID,155,VALID,1.71032,
2002-04-11, 01:41:00,VALID,915.371,VALID,0,VALID,96.5148,VALID,-0.0169808,VALID,20.3237,VALID,148,VALID,1.81039,
2002-04-11, 01:42:00,VALID,915.372,VALID,0,VALID,96.4169,VALID,-0.0509425,VALID,20.3364,VALID,147,VALID,1.77424,
2002-04-11, 01:43:00,VALID,915.361,VALID,0,VALID,96.3736,VALID,-0.0339617,VALID,20.3367,VALID,144,VALID,2.23395,
2002-04-11, 01:44:00,VALID,915.349,VALID,0,VALID,96.3787,VALID,-0.0679233,VALID,20.3464,VALID,150,VALID,2.04316,
2002-04-11, 01:45:00,VALID,915.335,VALID,0,VALID,96.3622,VALID,-0.0679233,VALID,20.3396,VALID,154,VALID,2.22997,
2002-04-11, 01:46:00,VALID,915.321,VALID,0,VALID,96.2986,VALID,-0.0679233,VALID,20.327,VALID,156,VALID,1.48712,
2002-04-11, 01:47:00,VALID,915.307,VALID,0,VALID,96.3329,VALID,-0.0509425,VALID,20.3006,VALID,151,VALID,1.70066,
2002-04-11, 01:48:00,VALID,915.304,VALID,0,VALID,96.3838,VALID,0,VALID,20.3014,VALID,138,VALID,1.58326,
2002-04-11, 01:49:00,VALID,915.298,VALID,0,VALID,96.366,VALID,-0.0169808,VALID,20.2847,VALID,145,VALID,1.40688,
2002-04-11, 01:50:00,VALID,915.294,VALID,0,VALID,96.352,VALID,-0.0509425,VALID,20.2852,VALID,131,VALID,1.45693,
2002-04-11, 01:51:00,VALID,915.287,VALID,0,VALID,96.2999,VALID,-0.0339617,VALID,20.2979,VALID,150,VALID,1.03653,
2002-04-11, 01:52:00,VALID,915.28,VALID,0,VALID,96.2439,VALID,0.0679233,VALID,20.2934,VALID,141,VALID,1.20254,
2002-04-11, 01:53:00,VALID,915.295,VALID,0,VALID,96.2223,VALID,0.0679233,VALID,20.2964,VALID,149,VALID,1.24219,
2002-04-11, 01:54:00,VALID,915.286,VALID,0,VALID,96.1219,VALID,0.0679233,VALID,20.3061,VALID,162,VALID,1.21052,
2002-04-11, 01:55:00,VALID,915.294,VALID,0,VALID,95.9756,VALID,0.0169808,VALID,20.3158,VALID,107,VALID,0.812089,
2002-04-11, 01:56:00,VALID,915.313,VALID,0,VALID,95.762,VALID,0.101885,VALID,20.3058,VALID,103,VALID,1.16447,
2002-04-11, 01:57:00,VALID,915.331,VALID,0,VALID,95.8281,VALID,0.0509425,VALID,20.2999,VALID,130,VALID,1.29941,
2002-04-11, 01:58:00,VALID,915.312,VALID,0,VALID,95.8904,VALID,0.0679233,VALID,20.3123,VALID,152,VALID,1.36558,
2002-04-11, 01:59:00,VALID,915.281,VALID,0,VALID,95.8892,VALID,0.0679233,VALID,20.3225,VALID,137,VALID,1.17356,
2002-04-11, 02:00:00,VALID,915.253,VALID,0,VALID,95.8129,VALID,0.0849042,VALID,20.3257,VALID,132,VALID,1.53398,
2002-04-11, 02:01:00,VALID,915.212,VALID,0,VALID,95.7773,VALID,0.0849042,VALID,20.3187,VALID,130,VALID,1.31971,
2002-04-11, 02:02:00,VALID,915.185,VALID,0,VALID,95.6755,VALID,0.0509425,VALID,20.3123,VALID,111,VALID,1.33805,
2002-04-11, 02:03:00,VALID,915.174,VALID,0,VALID,95.7226,VALID,0.0509425,VALID,20.2862,VALID,140,VALID,1.36904,
2002-04-11, 02:04:00,VALID,915.152,VALID,0,VALID,95.7645,VALID,0.0849042,VALID,20.2797,VALID,123,VALID,1.76583,
2002-04-11, 02:05:00,VALID,915.11,VALID,0,VALID,95.7798,VALID,0.0679233,VALID,20.2934,VALID,121,VALID,1.75962,
2002-04-11, 02:06:00,VALID,915.11,VALID,0,VALID,95.7671,VALID,0.0679233,VALID,20.2966,VALID,128,VALID,1.70453,
2002-04-11, 02:07:00,VALID,915.114,VALID,0,VALID,95.7531,VALID,-0.0169808,VALID,20.2812,VALID,120,VALID,1.88471,
2002-04-11, 02:08:00,VALID,915.12,VALID,0,VALID,95.7251,VALID,-0.0339617,VALID,20.2852,VALID,126,VALID,1.77363,
2002-04-11, 02:09:00,VALID,915.116,VALID,0,VALID,95.7633,VALID,-0.0339617,VALID,20.2974,VALID,126,VALID,1.5004,
2002-04-11, 02:10:00,VALID,915.111,VALID,0,VALID,95.5522,VALID,-0.0169808,VALID,20.3369,VALID,118,VALID,1.36001,
2002-04-11, 02:11:00,VALID,915.133,VALID,0,VALID,95.4416,VALID,0,VALID,20.3364,VALID,115,VALID,1.15604,
2002-04-11, 02:12:00,VALID,915.138,VALID,0,VALID,95.3932,VALID,-0.0339617,VALID,20.3235,VALID,108,VALID,1.13178,
2002-04-11, 02:13:00,VALID,915.158,VALID,0,VALID,95.4911,VALID,0,VALID,20.3073,VALID,142,VALID,1.15456,
2002-04-11, 02:14:00,VALID,915.16,VALID,0,VALID,95.6107,VALID,-0.0339617,VALID,20.2912,VALID,126,VALID,1.20112,
2002-04-11, 02:15:00,VALID,915.177,VALID,0,VALID,95.6386,VALID,-0.0339617,VALID,20.2783,VALID,125,VALID,1.49958,
2002-04-11, 02:16:00,VALID,915.152,VALID,0,VALID,95.7798,VALID,0,VALID,20.2656,VALID,135,VALID,1.06797,
2002-04-11, 02:17:00,VALID,915.15,VALID,0,VALID,95.8815,VALID,-0.0339617,VALID,20.2653,VALID,135,VALID,0.798878,
2002-04-11, 02:18:00,VALID,915.132,VALID,0,VALID,95.8942,VALID,0,VALID,20.2591,VALID,107,VALID,1.03294,
2002-04-11, 02:19:00,VALID,915.12,VALID,0,VALID,95.907,VALID,-0.0169808,VALID,20.2295,VALID,111,VALID,1.09601,
2002-04-11, 02:20:00,VALID,915.113,VALID,0,VALID,96.01,VALID,-0.0169808,VALID,20.2169,VALID,122,VALID,1.28104,
2002-04-11, 02:21:00,VALID,915.114,VALID,0,VALID,96.1041,VALID,0,VALID,20.2134,VALID,140,VALID,1.12162,
2002-04-11, 02:22:00,VALID,915.113,VALID,0,VALID,96.1867,VALID,0.0169808,VALID,20.2169,VALID,112,VALID,1.60337,
2002-04-11, 02:23:00,VALID,915.106,VALID,0,VALID,96.1982,VALID,0,VALID,20.2201,VALID,91,VALID,1.66723,
2002-04-11, 02:24:00,VALID,915.114,VALID,0,VALID,96.2071,VALID,0,VALID,20.2333,VALID,90,VALID,1.61191,
2002-04-11, 02:25:00,VALID,915.092,VALID,0,VALID,96.1804,VALID,0,VALID,20.2238,VALID,110,VALID,1.60537,
2002-04-11, 02:26:00,VALID,915.087,VALID,0,VALID,96.2083,VALID,0,VALID,20.2303,VALID,85,VALID,1.84502,
2002-04-11, 02:27:00,VALID,915.076,VALID,0,VALID,96.2109,VALID,0,VALID,20.23,VALID,108,VALID,1.12459,
2002-04-11, 02:28:00,VALID,915.067,VALID,0,VALID,96.263,VALID,-0.0169808,VALID,20.2233,VALID,103,VALID,1.5037,
2002-04-11, 02:29:00,VALID,915.038,VALID,0,VALID,96.2605,VALID,0,VALID,20.2298,VALID,104,VALID,1.07221,
2002-04-11, 02:30:00,VALID,915.025,VALID,0,VALID,96.2579,VALID,0.0169808,VALID,20.2328,VALID,86,VALID,1.29928,
2002-04-11, 02:31:00,VALID,915.002,VALID,0,VALID,96.2757,VALID,-0.0169808,VALID,20.2527,VALID,126,VALID,1.9867,
2002-04-11, 02:32:00,VALID,914.997,VALID,0,VALID,96.2338,VALID,0,VALID,20.2489,VALID,116,VALID,1.52344,
2002-04-11, 02:33:00,VALID,914.982,VALID,0,VALID,96.2223,VALID,0.0169808,VALID,20.2713,VALID,133,VALID,2.32432,
2002-04-11, 02:34:00,VALID,914.974,VALID,0,VALID,96.1269,VALID,0,VALID,20.3205,VALID,119,VALID,1.95714,
2002-04-11, 02:35:00,VALID,914.963,VALID,0,VALID,95.9044,VALID,0,VALID,20.3464,VALID,114,VALID,1.62089,
2002-04-11, 02:36:00,VALID,914.948,VALID,0,VALID,95.7734,VALID,0,VALID,20.3657,VALID,136,VALID,2.22471,
2002-04-11, 02:37:00,VALID,914.938,VALID,0,VALID,95.4632,VALID,-0.0169808,VALID,20.4269,VALID,134,VALID,2.2728,
2002-04-11, 02:38:00,VALID,914.939,VALID,0,VALID,95.1008,VALID,0,VALID,20.4724,VALID,116,VALID,1.98498,
2002-04-11, 02:39:00,VALID,914.939,VALID,0,VALID,94.9901,VALID,0,VALID,20.5112,VALID,128,VALID,2.33826,
2002-04-11, 02:40:00,VALID,914.93,VALID,0,VALID,94.7244,VALID,0,VALID,20.5661,VALID,124,VALID,1.7125,
2002-04-11, 02:41:00,VALID,914.912,VALID,0,VALID,94.4929,VALID,0,VALID,20.6046,VALID,128,VALID,2.76803,
2002-04-11, 02:42:00,VALID,914.892,VALID,0,VALID,94.0797,VALID,0,VALID,20.6891,VALID,119,VALID,2.0625,
2002-04-11, 02:43:00,VALID,914.882,VALID,0,VALID,93.8406,VALID,0.0169808,VALID,20.7236,VALID,137,VALID,2.02693,
2002-04-11, 02:44:00,VALID,914.86,VALID,0,VALID,93.7719,VALID,0,VALID,20.7242,VALID,118,VALID,1.39165,
2002-04-11, 02:45:00,VALID,914.856,VALID,0,VALID,93.8431,VALID,0,VALID,20.701,VALID,132,VALID,1.47234,
2002-04-11, 02:46:00,VALID,914.849,VALID,0,VALID,93.9983,VALID,0,VALID,20.6787,VALID,109,VALID,1.99018,
2002-04-11, 02:47:00,VALID,914.83,VALID,0,VALID,94.1356,VALID,0,VALID,20.6886,VALID,128,VALID,1.55448,
2002-04-11, 02:48:00,VALID,914.817,VALID,0,VALID,94.0542,VALID,-0.0169808,VALID,20.6883,VALID,140,VALID,1.49492,
2002-04-11, 02:49:00,VALID,914.833,VALID,0,VALID,94.1318,VALID,0,VALID,20.6856,VALID,121,VALID,2.22095,
2002-04-11, 02:50:00,VALID,914.821,VALID,0,VALID,94.0212,VALID,-0.0169808,VALID,20.6883,VALID,120,VALID,1.86275,
2002-04-11, 02:51:00,VALID,914.815,VALID,0,VALID,93.9741,VALID,0.0169808,VALID,20.6854,VALID,130,VALID,1.30037,
2002-04-11, 02:52:00,VALID,914.802,VALID,0,VALID,94.025,VALID,0,VALID,20.6528,VALID,131,VALID,1.34334,
2002-04-11, 02:53:00,VALID,914.805,VALID,0,VALID,94.1865,VALID,0,VALID,20.6205,VALID,132,VALID,1.39379,
2002-04-11, 02:54:00,VALID,914.796,VALID,0,VALID,94.3238,VALID,0,VALID,20.5917,VALID,148,VALID,1.38842,
2002-04-11, 02:55:00,VALID,914.793,VALID,0,VALID,94.4611,VALID,0,VALID,20.5628,VALID,153,VALID,1.96917,
2002-04-11, 02:56:00,VALID,914.791,VALID,0,VALID,94.5502,VALID,0,VALID,20.5526,VALID,144,VALID,1.53848,
2002-04-11, 02:57:00,VALID,914.795,VALID,0,VALID,94.554,VALID,0,VALID,20.5305,VALID,152,VALID,1.06691,
2002-04-11, 02:58:00,VALID,914.795,VALID,0,VALID,94.6315,VALID,0,VALID,20.5015,VALID,147,VALID,1.14485,
2002-04-11, 02:59:00,VALID,914.782,VALID,0,VALID,94.7536,VALID,0,VALID,20.4597,VALID,151,VALID,1.54708,
2002-04-11, 03:00:00,VALID,914.788,VALID,0,VALID,94.9736,VALID,-0.0169808,VALID,20.404,VALID,165,VALID,1.38117,
2002-04-11, 03:01:00,VALID,914.793,VALID,0,VALID,95.2228,VALID,0,VALID,20.3593,VALID,159,VALID,1.40287,
2002-04-11, 03:02:00,VALID,914.777,VALID,0,VALID,95.4047,VALID,-0.0169808,VALID,20.3011,VALID,163,VALID,1.39683,
2002-04-11, 03:03:00,VALID,914.774,VALID,0,VALID,95.6526,VALID,0.0169808,VALID,20.2683,VALID,155,VALID,1.51372,
2002-04-11, 03:04:00,VALID,914.769,VALID,0,VALID,95.865,VALID,0,VALID,20.2233,VALID,156,VALID,1.71426,
2002-04-11, 03:05:00,VALID,914.779,VALID,0,VALID,96.0405,VALID,0,VALID,20.1744,VALID,148,VALID,1.15064,
2002-04-11, 03:06:00,VALID,914.775,VALID,0,VALID,96.3164,VALID,-0.0169808,VALID,20.1619,VALID,145,VALID,1.46178,
2002-04-11, 03:07:00,VALID,914.767,VALID,0,VALID,96.4118,VALID,0,VALID,20.159,VALID,145,VALID,1.64556,
2002-04-11, 03:08:00,VALID,914.752,VALID,0,VALID,96.4207,VALID,0,VALID,20.1781,VALID,136,VALID,1.12891,
2002-04-11, 03:09:00,VALID,914.742,VALID,0,VALID,96.3075,VALID,-0.0169808,VALID,20.1619,VALID,123,VALID,0.961149,
2002-04-11, 03:10:00,VALID,914.725,VALID,0,VALID,96.3393,VALID,-0.0339617,VALID,20.1719,VALID,123,VALID,1.28345,
2002-04-11, 03:11:00,VALID,914.71,VALID,0,VALID,96.4194,VALID,0,VALID,20.1749,VALID,118,VALID,1.27217,
2002-04-11, 03:12:00,VALID,914.69,VALID,0,VALID,96.3864,VALID,0,VALID,20.1816,VALID,135,VALID,1.50957,
2002-04-11, 03:13:00,VALID,914.662,VALID,0,VALID,96.3698,VALID,0,VALID,20.1811,VALID,137,VALID,1.83293,
2002-04-11, 03:14:00,VALID,914.659,VALID,0,VALID,96.2719,VALID,0.0169808,VALID,20.2204,VALID,120,VALID,1.40013,
2002-04-11, 03:15:00,VALID,914.639,VALID,0,VALID,96.0303,VALID,-0.0169808,VALID,20.2206,VALID,109,VALID,1.46094,
2002-04-11, 03:16:00,VALID,914.644,VALID,0,VALID,95.9515,VALID,0,VALID,20.2397,VALID,133,VALID,1.28372,
2002-04-11, 03:17:00,VALID,914.64,VALID,0,VALID,95.8319,VALID,0,VALID,20.2365,VALID,123,VALID,1.12859,
2002-04-11, 03:18:00,VALID,914.638,VALID,0,VALID,95.6857,VALID,-0.0169808,VALID,20.2268,VALID,125,VALID,1.52744,
2002-04-11, 03:19:00,VALID,914.623,VALID,0,VALID,95.804,VALID,0,VALID,20.2333,VALID,148,VALID,1.63514,
2002-04-11, 03:20:00,VALID,914.597,VALID,0,VALID,95.8205,VALID,0,VALID,20.233,VALID,143,VALID,1.26465,
2002-04-11, 03:21:00,VALID,914.599,VALID,0,VALID,95.8167,VALID,0,VALID,20.2363,VALID,129,VALID,1.83574,
2002-04-11, 03:22:00,VALID,914.606,VALID,0,VALID,95.8307,VALID,0,VALID,20.2427,VALID,136,VALID,1.58003,
2002-04-11, 03:23:00,VALID,914.6,VALID,0,VALID,95.7874,VALID,-0.0169808,VALID,20.2589,VALID,141,VALID,1.40378,
2002-04-11, 03:24:00,VALID,914.608,VALID,0,VALID,95.7951,VALID,0,VALID,20.2624,VALID,130,VALID,1.55037,
2002-04-11, 03:25:00,VALID,914.606,VALID,0,VALID,95.8052,VALID,0,VALID,20.2591,VALID,121,VALID,1.50274,
2002-04-11, 03:26:00,VALID,914.606,VALID,0,VALID,95.7658,VALID,0,VALID,20.2522,VALID,130,VALID,0.895433,
2002-04-11, 03:27:00,VALID,914.618,VALID,0,VALID,95.7162,VALID,0,VALID,20.2397,VALID,112,VALID,1.49282,
2002-04-11, 03:28:01,VALID,914.632,VALID,0,VALID,95.9311,VALID,-0.0169808,VALID,20.2363,VALID,132,VALID,1.6541,
2002-04-11, 03:29:00,VALID,914.629,VALID,0,VALID,95.7887,VALID,-0.0339617,VALID,20.2527,VALID,145,VALID,1.34535,
2002-04-11, 03:30:00,VALID,914.62,VALID,0,VALID,95.79,VALID,-0.0339617,VALID,20.2524,VALID,131,VALID,1.50887,
2002-04-11, 03:31:00,VALID,914.613,VALID,0,VALID,95.6997,VALID,-0.0339617,VALID,20.2788,VALID,131,VALID,1.559,
2002-04-11, 03:32:00,VALID,914.623,VALID,0,VALID,95.5916,VALID,0,VALID,20.285,VALID,124,VALID,1.5072,
2002-04-11, 03:33:00,VALID,914.611,VALID,0,VALID,95.5331,VALID,-0.0169808,VALID,20.2723,VALID,136,VALID,1.15688,
2002-04-11, 03:34:00,VALID,914.593,VALID,0,VALID,95.6386,VALID,0,VALID,20.2559,VALID,126,VALID,1.25942,
2002-04-11, 03:35:00,VALID,914.581,VALID,0,VALID,95.706,VALID,0.0169808,VALID,20.243,VALID,135,VALID,1.08784,
2002-04-11, 03:36:01,VALID,914.584,VALID,0,VALID,95.7684,VALID,0,VALID,20.2392,VALID,153,VALID,1.30176,